User: anonymous   Login
Location: Taupo
(38.6830°S, 176.0830°E)
Time: 02:33:09
(UTC+13:00)
Language:

Resurs 01 Rocket - Orbit

View from above orbital plane
View from above orbital plane
View from above satellite
View from above satellite

Ground track
Ground track

The orbit data is extracted from the following two-line orbital elements,

1 23343U 94074B   19292.77709340 +.00000008 +00000-0 +84979-5 0  9999
2 23343 098.0375 342.4004 0006400 197.6870 298.9496 14.76794563342743
Epoch (UTC): 19 October 2019 18:39:00
Eccentricity: 0.0006400
inclination: 98.0375°
perigee height: 635 km
apogee height: 644 km
right ascension of ascending node: 342.4004°
argument of perigee: 197.6870°
revolutions per day: 14.76794563
mean anomaly at epoch: 298.9496°
orbit number at epoch: 34274

The dashed part of the orbit path shows where the satellite is in the earth's shadow,  

DLR